Location: Castro Valley
(37.6941°N, 122.0863°W)
Time: 12:33:09
(UTC+00:00)

H-2A R/B - Pass Details

Date: 19 May 2025
Orbit: 532 x 543 km, 98.2° (Epoch: 15 June)

Event Time Altitude Azimuth Distance (km) Brightness Sun altitude
Rises 12:03:54 0° 2° (N) 2,694 7.4 -9.6°
Reaches altitude 10° 12:06:10 10° 352° (N) 1,801 6.3 -9.2°
Maximum altitude 12:09:38 32° 289° (WNW) 934 4.2 -8.7°
Drops below altitude 10° 12:13:07 10° 225° (SW) 1,796 5.3 -8.1°
Enters shadow 12:13:11 10° 224° (SW) 1,816 5.3 -8.1°
